User: anonymous
Location: Bonn
(50.7330°N, 7.1000°E)
Time: 23:53:28
(UTC+02:00)
Language:

Cosmos 1933 Rocket - Orbit

View from above orbital plane
View from above orbital plane
View from above satellite
View from above satellite

Ground track
Ground track

The orbit data is extracted from the following two-line orbital elements,

1 18959U 88020B   14261.79489380  .00000326  00000-0  37304-4 0  3459
2 18959 082.5366 127.2614 0016930 197.0775 209.5884 14.82855840432002
Epoch (UTC): 18 September 2014 19:04:38
Eccentricity: 0.0016930
inclination: 82.5366°
perigee height: 608 km
apogee height: 632 km
right ascension of ascending node: 127.2614°
argument of perigee: 197.0775°
revolutions per day: 14.82855840
mean anomaly at epoch: 209.5884°
orbit number at epoch: 43200

The dashed part of the orbit path shows where the satellite is in the earth's shadow,  

DLR